Location: Kerentrech
(47.7567°N, 3.3595°W)
Time: 06:20:15
(UTC+00:00)

CZ-4C R/B - Pass Details

Date: 17 February 2020
Orbit: 641 x 1361 km, 63.4° (Epoch: 09 April)

Event Time Altitude Azimuth Distance (km) Brightness Sun altitude
Exits shadow 05:14:52 31° 310° (NW) 1,466 3.1 -21.2°
Maximum altitude 05:15:53 33° 331° (NNW) 1,439 3.2 -21.0°
Drops below altitude 10° 05:21:36 10° 34° (NE) 2,771 5.4 -20.0°
Sets 05:24:45 0° 43° (NE) 3,855 6.3 -19.5°
